Location: Arran
(51.9410°N, 101.7372°W)
Time: 08:41:58
(UTC+00:00)

SWISSCUBE - Pass Details

Date: 14 May 2025
Orbit: 685 x 693 km, 98.4° (Epoch: 20 June)

Event Time Altitude Azimuth Distance (km) Brightness Sun altitude
Rises 06:54:39 0° 8° (N) 3,075 ? -19.3°
Reaches altitude 10° 06:57:07 10° 358° (N) 2,155 ? -19.3°
Maximum altitude 07:01:11 30° 298° (WNW) 1,235 ? -19.2°
Enters shadow 07:04:07 16° 247° (WSW) 1,766 ? -19.2°
